Terug naar catalogus

STARLINK-11554

ActiefCommunicatieVLEO
NORAD 62833·PAYLOAD·🇺🇸 United States

Gelanceerd Jan 27, 2025 vanaf Cape Canaveral Space Force Station

Loading…

Volgende Passages (komende 24 uur)

TLE

VersSource: CelesTrak SupGP

Epoch: Sep 14, 2026, 22:55 UTC

1 62833C 25019E   26257.95534722  .00062850  00000+0  48823-3 0  2573
2 62833  43.0007 245.4530 0001460 259.0550 112.0100 15.70804143    17

Volg STARLINK-11554 in realtime met AllMySat

Download on the App Store